This is the latest recevied weather packets stored in our database for station/object N1MCJ. If no packets are shown the sender has not sent any weather packets the latest 10 day(s).
| Time | Temp. | Humidity | Pressure | Rain* | Wind** | Luminosity | Snow |
|---|---|---|---|---|---|---|---|
| 1778166697 | 11.67° C | 47% | 1001.8 hPa | 0 mm | - | 193 W/m² | - |
| 1778165797 | 11.67° C | 50% | 1001.9 hPa | 0 mm | - | 44 W/m² | - |
| 1778164896 | 11.67° C | 51% | 1001.8 hPa | 0 mm | - | 130 W/m² | - |
| 1778163996 | 11.11° C | 53% | 1002.1 hPa | 0 mm | - | 67 W/m² | - |
| 1778163092 | 11.11° C | 52% | 1001.6 hPa | 0 mm | - | 74 W/m² | - |
| 1778162189 | 10.56° C | 53% | 1001.9 hPa | 0 mm | - | 100 W/m² | - |
| 1778161284 | 10.56° C | 64% | 1001.9 hPa | 0 mm | - | 39 W/m² | - |
| 1778160380 | 10° C | 68% | 1001.5 hPa | 0 mm | - | 75 W/m² | - |
| 1778159477 | 10° C | 76% | 1001.7 hPa | 0 mm | - | 30 W/m² | - |
| 1778158575 | 9.44° C | 86% | 1001.6 hPa | 0 mm | - | 78 W/m² | - |
| 1778157672 | 8.89° C | 91% | 1001.6 hPa | 0 mm | - | 68 W/m² | - |
| 1778156768 | 8.89° C | 95% | 1001.8 hPa | 0 mm | - | 41 W/m² | - |
| 1778155868 | 8.33° C | 96% | 1001.8 hPa | 0 mm | - | 43 W/m² | - |
| 1778154963 | 8.33° C | 97% | 1001 hPa | 0 mm | - | 25 W/m² | - |
| 1778154058 | 7.78° C | 98% | 1001.3 hPa | 0 mm | - | 25 W/m² | - |
| 1778153156 | 8.33° C | 99% | 1001.1 hPa | 0 mm | - | 19 W/m² | - |
| 1778152252 | 8.33° C | 99% | 1001.3 hPa | 0 mm | - | 13 W/m² | - |
| 1778151348 | 8.33° C | 99% | 1000.8 hPa | 0 mm | - | 9 W/m² | - |
| 1778150444 | 8.33° C | 99% | 1000.7 hPa | 0 mm | - | 6 W/m² | - |
| 1778149539 | 8.33° C | 99% | 1000.7 hPa | 0 mm | - | 4 W/m² | - |
| 1778148639 | 8.33° C | 99% | 1000.6 hPa | 0 mm | - | 3 W/m² | - |
| 1778147738 | 8.33° C | 99% | 1000.5 hPa | 0 mm | - | 0 W/m² | - |
| 1778146834 | 8.33° C | 99% | 1000.4 hPa | 1.27 mm | - | 0 W/m² | - |
| 1778145932 | 8.33° C | 99% | 999.8 hPa | 0 mm | - | 0 W/m² | - |
| 1778145027 | 8.33° C | 99% | 1000.1 hPa | 3.05 mm | - | 0 W/m² | - |
* Rain latest hour (hover to see other rain measurements)
** Current wind speed in m/s (hover to see current wind gust speed)